Temperature
10 10 11 12 13 15 16 16 17 17 18 17 18 18 19 20 19 19 20 20 20 19 19 19 18 18 17 17 16 16 16 16 15 14 14 13 13 13 12 12 12 11 11 11
9 10 13 14 14 14 14 15 16 16 17 17 17 18 19 20 20 19 20 20 20 20 19 19 18 18 18 18 17 17 16 16 16 15 15 15 14 13 13 12 12 11 11 11
9 11 13 13 13 13 13 14 15 15 15 16 16 17 19 20 19 19 19 19 20 20 20 19 18 18 18 18 18 18 17 17 16 16 15 14 13 12 12 12 12 12 11 11
10 11 12 12 13 13 13 15 15 15 15 15 16 17 19 20 19 19 19 19 19 19 19 19 19 18 18 19 19 18 18 17 17 16 14 14 13 13 13 13 13 12 11 11
10 11 11 11 13 13 14 14 14 14 14 14 15 15 18 19 19 19 20 20 19 19 19 19 19 19 19 19 19 19 18 17 16 16 15 14 14 14 13 12 12 12 11 11
10 11 12 12 13 13 13 13 12 12 12 12 15 15 17 19 19 20 20 20 19 18 18 19 19 19 19 19 19 18 18 17 16 16 15 15 14 14 13 12 12 12 12 11
9 10 11 11 11 12 12 11 11 11 11 13 15 15 17 19 19 20 20 20 19 18 18 18 18 18 19 19 19 18 18 17 16 16 15 15 15 14 13 13 13 12 12 12
7 9 10 11 11 11 11 12 12 12 13 15 14 15 18 19 19 18 18 18 18 18 18 18 18 18 19 19 19 19 18 17 17 16 16 15 14 13 13 13 13 12 12 13
7 9 11 11 11 11 11 11 13 13 14 15 14 16 17 17 17 17 17 17 17 17 17 18 18 18 19 18 19 19 18 17 17 16 15 15 14 14 13 13 12 12 12 12
7 7 9 10 11 11 12 12 11 11 12 14 15 16 17 17 17 18 18 18 18 17 17 17 18 18 18 18 18 18 18 17 17 16 15 15 15 14 14 13 12 12 12 12
6 6 8 8 9 10 10 11 10 11 13 15 15 17 18 19 19 19 19 19 18 17 17 17 17 18 18 18 18 18 17 17 16 15 15 15 14 14 13 13 13 12 12 12
5 6 7 8 9 10 11 10 10 11 12 14 16 17 18 18 18 18 18 17 17 17 17 17 17 17 17 17 17 17 17 17 16 16 15 15 14 14 13 13 13 12 12 12
5 5 6 7 8 8 9 10 11 12 12 13 14 17 17 16 16 16 16 16 15 15 15 16 16 17 17 17 17 17 17 16 16 15 15 14 14 13 13 13 12 12 12 12
5 4 6 7 7 6 7 8 10 11 11 12 14 16 17 16 16 16 15 15 14 14 15 15 16 16 16 17 17 17 16 16 16 15 15 15 14 14 13 12 12 12 12 11
4 4 5 6 7 7 7 8 9 10 12 13 14 15 16 17 17 16 15 14 14 13 14 15 15 16 16 16 16 16 16 16 15 15 15 15 14 13 13 12 12 11 11 11
3 4 5 6 7 7 7 8 9 10 11 13 14 14 16 16 16 15 15 14 14 14 14 15 15 15 16 16 16 16 16 16 15 15 15 14 14 13 12 12 11 11 11 10
3 3 4 5 6 7 7 9 9 10 12 13 13 14 15 15 15 15 15 14 14 14 14 15 15 16 16 16 16 16 16 15 15 15 14 14 13 13 12 11 11 11 10 10
2 2 3 4 5 5 9 10 10 11 11 12 13 14 14 15 15 15 15 15 15 15 15 15 15 15 16 16 16 16 16 15 15 15 14 14 13 12 12 11 10 10 10 9
3 3 3 4 5 7 9 9 10 10 10 11 12 12 13 13 14 15 14 14 15 15 15 15 15 16 15 15 15 15 15 15 15 14 14 13 13 12 11 11 10 10 9 9
3 3 3 4 5 6 9 9 9 10 9 10 11 11 12 12 13 14 14 13 14 14 15 15 15 15 15 15 15 15 15 15 15 14 14 13 12 12 11 11 10 10 9 9
2 2 2 3 5 7 8 8 9 9 9 9 10 10 10 11 12 13 13 13 13 13 14 14 14 15 15 15 15 15 15 15 15 14 13 12 12 11 11 10 10 9 9 8
3 3 3 4 4 6 7 7 8 8 8 8 8 9 9 9 10 10 11 12 12 13 13 14 14 14 14 14 14 14 14 14 14 13 13 12 11 11 10 9 9 9 8 8
4 4 4 4 6 7 7 7 7 7 7 7 7 8 8 8 9 9 9 10 11 12 12 13 13 14 14 14 14 14 14 14 13 13 12 11 11 10 10 9 9 8 8 7
4 5 4 4 6 7 7 6 6 6 7 7 7 7 7 7 8 8 8 9 10 11 11 12 12 13 13 13 13 13 14 13 13 12 11 11 10 10 9 8 8 8 7 7
4 4 4 4 5 6 6 6 6 6 6 6 6 6 6 7 7 7 7 8 9 10 11 11 12 12 13 13 13 13 13 13 12 12 11 10 10 9 8 8 7 7 7 7
3 3 4 4 6 6 6 6 5 5 5 5 5 6 6 6 7 7 7 8 8 9 10 10 11 11 12 12 12 12 12 12 12 11 10 10 9 8 8 7 7 6 6 6
Wind_Speed
13 14 21 25 28 23 20 22 22 19 14 17 22 23 21 17 16 19 20 20 20 20 19 18 18 18 19 19 21 22 22 21 19 16 15 15 14 13 13 13 16 18 17 17
13 24 27 24 24 23 21 21 21 14 12 14 18 22 22 21 21 20 21 21 21 20 18 16 17 17 20 21 22 22 23 22 21 18 17 15 15 13 13 12 15 18 18 18
24 19 22 23 24 25 24 24 21 14 10 12 12 18 22 21 21 21 21 21 21 20 20 19 18 19 20 21 23 21 23 23 23 21 15 13 11 10 11 13 13 16 19 19
21 20 19 23 26 25 24 22 18 15 12 10 12 13 19 19 20 22 23 22 22 21 20 19 18 19 20 21 21 22 22 23 23 21 18 20 16 15 17 14 14 15 19 19
16 19 22 24 27 25 19 15 16 16 15 13 13 13 14 15 20 22 22 23 22 21 20 19 19 18 19 19 19 20 21 22 22 22 22 21 19 17 14 14 15 15 15 17
18 16 19 21 21 20 12 10 8 10 11 16 21 17 14 16 20 19 19 20 19 19 18 18 17 16 16 16 17 18 20 22 22 23 23 23 22 19 17 17 16 14 13 14
13 16 14 13 14 17 16 13 8 10 12 14 17 17 15 15 16 18 18 17 17 17 16 16 16 16 15 16 18 18 20 21 22 23 23 23 23 21 20 18 17 15 13 13
11 14 17 13 17 14 21 21 14 11 12 12 13 17 14 14 15 16 16 15 14 15 15 15 16 15 15 16 18 19 20 21 21 22 22 21 21 17 15 18 15 16 14 14
8 11 12 16 16 16 17 19 16 10 8 11 11 12 12 11 14 17 17 16 16 15 15 15 14 14 14 15 17 19 20 20 20 21 21 20 20 19 17 17 16 14 14 12
6 7 8 11 11 18 17 15 10 10 10 13 14 17 12 14 19 19 19 19 18 16 15 14 13 13 12 13 14 16 18 19 19 19 19 16 19 19 17 16 16 15 15 13
4 5 6 8 13 17 15 16 10 10 11 12 13 12 11 15 16 18 19 18 17 15 14 13 12 12 11 11 12 14 15 16 16 18 18 17 17 17 16 15 16 15 14 14
3 4 6 11 10 12 16 17 17 14 11 14 14 9 4 8 9 10 11 10 11 11 11 11 11 10 10 11 12 13 14 15 15 16 16 16 16 15 16 15 15 14 14 13
3 3 4 5 5 5 11 15 19 17 12 13 16 11 4 3 5 6 7 7 7 8 8 9 10 10 11 11 11 12 13 14 14 14 15 15 15 15 15 15 14 13 13 12
4 4 6 7 5 5 10 15 18 17 15 16 19 16 8 7 6 5 5 5 6 7 8 9 9 10 10 10 11 12 12 13 13 14 14 15 15 15 14 13 13 13 12 12
3 5 7 10 9 9 12 16 19 22 22 20 20 20 16 10 8 6 4 4 5 7 8 9 9 9 10 10 10 11 11 12 13 13 14 14 13 13 12 12 12 12 11 11
3 5 7 9 9 10 13 17 20 24 25 26 22 21 15 11 7 6 6 6 7 7 8 8 9 10 10 10 10 10 11 12 13 13 13 12 12 12 12 12 11 11 11 10
4 4 4 7 7 7 11 17 20 21 25 26 26 22 12 13 12 11 10 9 9 9 8 9 10 10 10 10 11 11 11 12 12 12 12 12 13 12 12 11 11 11 11 10
8 7 5 5 5 10 8 8 14 19 21 22 20 16 14 16 16 15 13 12 11 10 9 9 9 9 9 9 10 10 11 12 12 12 12 12 13 13 12 12 12 11 10 9
15 9 5 4 7 9 9 7 11 15 15 13 16 16 15 14 13 16 14 12 12 11 10 10 10 9 9 10 11 11 11 11 12 12 13 13 13 13 13 13 12 10 9 9
13 12 7 6 7 8 5 4 6 10 12 8 10 12 12 11 14 16 12 11 12 11 8 8 8 8 9 10 11 12 12 13 13 13 13 13 13 13 13 12 11 9 9 8
7 8 11 11 9 8 5 5 3 9 6 5 7 9 10 13 15 13 11 11 11 10 8 7 8 9 10 11 13 13 13 13 12 12 12 12 12 12 12 11 10 10 9 9
6 6 8 8 9 9 2 0 4 4 7 7 7 8 10 13 13 12 12 10 9 8 7 7 8 9 9 12 14 13 13 12 12 13 13 13 12 11 10 12 10 10 10 9
8 7 4 7 9 6 4 7 8 8 9 9 9 10 11 12 12 11 11 10 9 8 7 7 8 9 9 12 14 14 12 13 14 14 13 13 12 11 11 11 11 10 9 8
8 8 9 10 13 13 12 12 11 10 11 12 12 12 12 12 12 12 11 10 8 7 6 6 8 10 10 11 12 12 13 14 15 15 14 13 12 11 10 9 9 9 8 8
11 7 10 14 16 14 12 12 13 13 14 15 14 13 13 12 13 12 11 10 8 6 6 7 9 10 11 11 11 12 14 15 15 14 13 12 11 11 10 8 6 7 6 7
14 15 14 14 14 13 15 15 15 16 15 15 15 15 14 13 13 11 10 9 7 6 6 7 8 9 10 12 12 13 14 15 16 14 13 11 10 10 9 9 7 7 6 8
Wind_Direction
200 208 211 209 212 223 221 221 223 224 216 215 227 235 235 228 225 230 230 229 228 228 228 220 214 208 204 202 201 200 198 198 195 194 195 196 201 201 202 203 204 203 203 202
209 219 220 216 216 221 225 225 226 228 220 223 236 241 240 236 231 231 232 231 230 229 226 216 209 204 203 202 201 201 200 198 196 197 197 200 201 203 204 202 205 204 204 204
217 222 216 215 213 215 220 221 220 218 209 223 242 247 239 235 232 233 233 233 232 228 226 219 210 206 203 203 202 200 200 198 198 197 195 194 196 198 200 203 205 206 205 205
226 226 216 214 214 212 220 220 220 215 212 221 221 248 237 228 227 229 230 230 231 229 228 225 217 208 205 204 201 201 199 199 198 195 195 193 196 200 204 202 204 203 205 206
221 215 213 217 216 212 218 211 216 219 226 237 226 243 247 221 229 228 227 228 228 227 226 223 219 212 207 202 198 199 198 198 197 196 198 198 203 206 204 201 202 202 202 206
233 222 216 221 222 215 198 187 206 221 225 236 227 229 249 222 226 226 224 224 224 224 222 222 219 212 206 198 195 196 197 198 197 197 200 202 204 204 200 199 199 199 200 204
232 222 213 214 210 205 191 179 190 201 212 230 217 223 243 232 225 226 225 223 222 222 220 217 212 205 201 196 194 194 196 197 197 198 201 203 205 205 204 201 201 198 199 202
218 219 207 206 208 198 198 196 201 205 213 220 205 226 238 230 225 228 232 231 227 222 217 213 210 205 200 196 193 193 196 197 196 197 201 203 204 205 207 206 204 202 202 204
221 228 214 211 209 202 199 207 218 231 235 227 217 233 244 232 226 225 226 226 226 220 214 212 208 204 199 194 193 193 194 195 195 197 199 201 202 204 206 206 206 207 206 204
236 239 227 212 207 211 209 198 199 209 209 223 227 229 228 209 215 217 219 221 222 218 213 210 205 199 196 193 192 192 193 194 194 195 197 199 201 204 205 204 204 205 205 201
256 240 225 204 201 198 200 201 200 207 225 225 231 234 220 217 212 214 216 215 214 209 206 203 199 194 188 185 186 188 190 191 192 193 195 197 199 201 202 203 205 205 204 201
274 253 238 225 226 217 206 202 200 202 207 222 234 235 168 215 220 217 217 212 211 206 201 195 189 183 180 181 183 185 186 189 190 190 192 195 196 196 199 201 202 201 201 199
287 254 244 211 206 204 209 208 209 216 219 218 221 224 165 216 227 225 222 213 201 193 187 183 180 181 181 181 181 183 185 186 185 185 188 190 192 194 196 198 197 196 196 195
290 243 240 237 243 227 227 221 217 214 219 223 225 230 222 230 237 235 221 207 193 187 185 182 180 182 181 181 180 181 183 182 180 181 184 188 191 192 193 193 192 192 190 189
298 257 257 267 268 234 236 231 224 220 221 226 230 235 235 233 235 231 215 188 187 187 189 189 186 184 181 180 179 180 179 178 177 179 183 187 186 185 185 186 187 185 185 185
294 273 274 269 262 249 245 233 226 228 227 232 238 240 238 241 240 234 225 207 206 205 201 198 193 188 187 186 181 178 178 176 176 179 181 179 178 178 180 180 179 177 178 179
255 268 271 266 262 261 246 225 220 224 228 229 234 237 238 236 231 230 229 227 223 220 213 206 202 197 193 191 183 180 177 172 175 177 176 175 175 175 175 172 172 175 177 177
235 246 255 265 248 233 243 226 225 230 233 234 240 245 239 239 243 243 239 240 242 236 225 217 210 205 198 190 183 175 169 171 172 173 174 173 172 172 170 170 173 175 175 176
216 220 237 241 244 254 262 247 225 225 236 240 240 245 247 252 258 249 242 244 244 241 235 225 215 206 193 184 176 167 168 170 172 175 175 173 171 169 169 171 173 171 169 170
202 210 227 238 241 240 250 269 256 223 238 249 247 250 253 240 241 246 250 245 249 250 240 225 210 200 192 182 170 168 172 174 180 179 174 170 169 169 169 169 167 164 163 162
191 204 222 237 243 256 283 303 217 201 236 282 257 256 252 241 246 267 268 251 245 246 240 220 203 198 192 178 170 174 176 182 178 169 164 164 166 166 164 160 160 157 154 153
223 214 213 223 232 244 331 213 211 274 309 306 287 268 262 261 267 274 271 264 251 242 234 216 201 197 186 178 174 177 181 174 162 159 158 159 159 156 155 154 154 155 154 154
227 230 237 232 246 286 278 263 279 297 300 302 304 296 284 278 275 276 275 267 255 243 230 214 199 189 185 183 180 178 172 160 157 155 155 154 152 153 155 155 154 155 158 158
249 245 250 259 259 270 278 277 282 291 297 299 300 299 294 284 282 277 274 268 258 246 228 209 193 188 187 182 181 173 161 158 156 155 153 152 151 150 150 151 155 158 162 162
256 256 256 262 271 283 273 272 284 291 294 298 300 296 291 286 283 277 273 264 254 243 224 205 197 189 183 175 170 163 160 157 155 153 151 151 150 148 146 144 148 156 161 168
248 246 249 258 268 275 282 288 291 291 290 291 294 295 292 284 280 276 270 259 247 233 217 204 196 184 175 168 164 162 161 159 154 151 153 153 151 148 145 140 123 92 115 122
Height
1446 1448 1443 1442 1444 1443 1443 1444 1445 1445 1448 1453 1451 1449 1448 1451 1454 1455 1455 1457 1460 1462 1465 1469 1471 1474 1478 1481 1484 1488 1492 1495 1499 1503 1506 1509 1512 1515 1518 1521 1524 1527 1530 1532
1442 1437 1433 1437 1441 1444 1444 1444 1443 1445 1447 1449 1446 1444 1442 1443 1445 1447 1449 1450 1453 1456 1459 1462 1464 1467 1470 1474 1477 1481 1485 1489 1492 1496 1500 1503 1507 1510 1513 1516 1519 1522 1525 1528
1431 1427 1430 1433 1436 1439 1440 1441 1442 1444 1447 1447 1447 1440 1435 1434 1438 1441 1442 1444 1446 1448 1451 1455 1457 1460 1463 1466 1470 1473 1477 1481 1486 1490 1495 1499 1502 1505 1508 1510 1513 1516 1520 1523
1424 1424 1427 1427 1429 1432 1435 1436 1440 1443 1446 1444 1445 1437 1423 1424 1428 1431 1433 1435 1437 1440 1443 1447 1450 1452 1455 1459 1463 1467 1471 1475 1479 1483 1487 1490 1493 1496 1499 1503 1507 1511 1514 1518
1417 1417 1421 1422 1421 1425 1428 1433 1438 1441 1443 1443 1441 1439 1419 1418 1420 1420 1423 1426 1429 1432 1435 1438 1441 1444 1447 1452 1455 1460 1464 1468 1472 1476 1480 1484 1487 1491 1496 1499 1502 1505 1509 1512
1412 1413 1414 1416 1420 1423 1427 1435 1441 1442 1444 1445 1432 1435 1417 1409 1409 1410 1414 1417 1420 1424 1427 1430 1434 1437 1440 1444 1448 1452 1456 1461 1465 1469 1473 1477 1481 1485 1489 1492 1496 1499 1503 1506
1410 1408 1410 1413 1418 1421 1423 1432 1441 1441 1440 1429 1419 1424 1409 1399 1401 1404 1407 1411 1414 1417 1420 1423 1426 1429 1433 1436 1440 1445 1449 1453 1458 1462 1466 1470 1474 1479 1483 1486 1490 1493 1496 1500
1408 1402 1403 1407 1409 1412 1415 1419 1422 1422 1418 1412 1417 1412 1397 1394 1398 1401 1403 1405 1408 1411 1413 1416 1418 1422 1426 1430 1433 1437 1442 1446 1451 1455 1459 1464 1469 1473 1477 1481 1484 1487 1490 1494
1406 1400 1397 1399 1402 1406 1410 1412 1410 1412 1408 1406 1406 1399 1393 1393 1394 1396 1398 1400 1401 1404 1407 1409 1412 1416 1419 1423 1427 1431 1435 1440 1444 1448 1453 1458 1462 1466 1471 1475 1479 1482 1485 1489
1405 1403 1397 1397 1399 1400 1401 1405 1412 1415 1411 1404 1394 1391 1385 1384 1385 1387 1389 1391 1393 1397 1401 1403 1406 1410 1414 1418 1422 1426 1430 1434 1438 1443 1447 1452 1456 1461 1465 1469 1472 1476 1480 1483
1407 1404 1398 1396 1393 1393 1399 1404 1405 1406 1399 1392 1389 1380 1370 1372 1375 1377 1379 1383 1387 1391 1395 1398 1402 1405 1409 1413 1417 1420 1425 1429 1433 1438 1442 1447 1451 1455 1459 1463 1467 1471 1474 1477
1408 1405 1397 1392 1389 1389 1391 1393 1398 1400 1397 1389 1382 1374 1367 1369 1371 1374 1376 1380 1384 1387 1390 1394 1397 1401 1405 1409 1412 1416 1420 1424 1428 1433 1437 1442 1446 1450 1454 1457 1461 1465 1469 1472
1408 1406 1396 1389 1393 1393 1391 1390 1391 1391 1389 1386 1383 1374 1367 1370 1372 1374 1376 1378 1381 1384 1387 1390 1393 1397 1401 1405 1408 1412 1416 1420 1424 1428 1433 1437 1441 1444 1448 1452 1456 1460 1463 1467
1407 1404 1398 1390 1387 1392 1392 1390 1388 1389 1387 1383 1376 1368 1367 1369 1370 1372 1374 1376 1378 1381 1384 1387 1390 1393 1397 1401 1405 1408 1412 1416 1420 1424 1428 1432 1435 1439 1443 1447 1451 1454 1458 1461
1407 1401 1396 1391 1388 1389 1388 1387 1386 1384 1378 1377 1371 1369 1365 1367 1369 1371 1372 1375 1377 1378 1381 1384 1387 1390 1394 1397 1401 1405 1408 1412 1416 1420 1424 1427 1431 1435 1439 1442 1446 1449 1453 1456
1407 1402 1396 1389 1386 1384 1382 1379 1379 1378 1374 1370 1367 1366 1364 1368 1370 1371 1371 1373 1375 1376 1379 1381 1384 1387 1391 1394 1397 1401 1404 1408 1412 1416 1419 1423 1427 1430 1434 1438 1441 1445 1448 1452
1406 1404 1398 1387 1383 1382 1376 1368 1368 1367 1364 1363 1362 1360 1364 1367 1367 1368 1369 1371 1372 1374 1376 1378 1381 1384 1387 1390 1394 1397 1401 1404 1408 1412 1415 1419 1422 1426 1430 1433 1437 1440 1444 1447
1404 1403 1399 1390 1384 1382 1362 1358 1360 1360 1359 1359 1359 1360 1362 1362 1363 1364 1366 1367 1368 1370 1372 1375 1378 1380 1384 1387 1391 1394 1397 1401 1404 1408 1411 1415 1418 1422 1425 1429 1433 1436 1440 1443
1397 1400 1397 1389 1379 1367 1358 1357 1357 1357 1357 1358 1358 1359 1361 1362 1362 1359 1361 1364 1365 1367 1369 1371 1373 1376 1379 1382 1386 1389 1393 1396 1400 1403 1407 1410 1414 1417 1421 1425 1428 1432 1435 1438
1391 1395 1395 1387 1378 1365 1352 1353 1353 1356 1355 1356 1356 1356 1358 1359 1359 1352 1356 1359 1360 1362 1365 1366 1369 1371 1374 1377 1381 1384 1388 1391 1395 1399 1403 1406 1410 1414 1417 1421 1425 1428 1431 1434
1387 1390 1389 1383 1373 1357 1354 1354 1352 1356 1352 1352 1353 1353 1355 1355 1352 1353 1354 1354 1355 1357 1359 1361 1363 1365 1368 1372 1375 1379 1383 1387 1391 1395 1399 1403 1407 1410 1414 1418 1421 1424 1427 1431
1378 1377 1378 1376 1371 1361 1355 1354 1354 1352 1351 1350 1350 1350 1350 1349 1349 1350 1349 1348 1349 1350 1352 1354 1356 1359 1363 1366 1370 1374 1378 1382 1387 1390 1394 1399 1403 1407 1410 1414 1417 1421 1424 1427
1373 1370 1368 1368 1360 1354 1354 1353 1352 1351 1350 1349 1348 1347 1346 1345 1344 1344 1343 1343 1344 1345 1346 1348 1350 1353 1357 1361 1365 1369 1373 1378 1382 1386 1390 1394 1399 1403 1407 1410 1414 1417 1420 1423
1367 1367 1366 1362 1354 1352 1351 1350 1349 1349 1348 1346 1345 1343 1342 1340 1339 1338 1338 1338 1338 1338 1340 1342 1344 1347 1351 1355 1360 1364 1369 1373 1377 1381 1386 1390 1394 1399 1403 1407 1411 1414 1416 1419
1365 1364 1361 1357 1352 1350 1346 1347 1346 1345 1344 1341 1340 1339 1337 1335 1333 1333 1332 1332 1332 1332 1334 1336 1338 1341 1345 1350 1354 1359 1364 1368 1372 1377 1382 1386 1391 1395 1399 1403 1407 1410 1413 1416
1359 1359 1356 1349 1347 1347 1343 1343 1342 1341 1339 1338 1336 1333 1331 1331 1329 1327 1326 1326 1327 1327 1329 1331 1333 1336 1340 1345 1349 1354 1359 1364 1368 1372 1377 1382 1386 1391 1395 1399 1403 1407 1410 1413